Change the Weather History Date:

Wednesday, November 14, 2012

  Actual Average Record
Temperature  
Mean Temperature 34 °F -  
Max Temperature 42 °F 39 °F 70 °F (1953)
Min Temperature 27 °F 22 °F 2 °F (1986)
Degree Days  
Heating Degree Days 30    
Moisture  
Dew Point 25 °F    
Average Humidity 67    
Maximum Humidity 75    
Minimum Humidity 55    
Precipitation  
Precipitation 0.00 in - - ()
Sea Level Pressure  
Sea Level Pressure 30.35 in    
Wind  
Wind Speed 5 mph (SSE)    
Max Wind Speed 12 mph    
Max Gust Speed -    
Visibility 10 miles    
Events      
Averages and records for this station are not official NWS values.
T = Trace of Precipitation, MM = Missing Value Source: NWS Daily Summary

Daily Weather History Graph

Daily Weather History Graph

Search for Another Location

Airport or City:

Trip Planner

Search our weather history database for the weather conditions in past years. The results will help you decide how hot, cold, wet, or windy it might be!

Date:

Astronomy

Nov. 14, 2012 Rise Set
Actual Time 6:51 AM CST 4:21 PM CST
Civil Twilight 6:19 AM CST 4:54 PM CST
Nautical Twilight 5:43 AM CST 5:30 PM CST
Astronomical Twilight 5:08 AM CST 6:05 PM CST
Moon 7:43 AM CST (11/14) 5:06 PM CST (11/14)
Length of Visible Light 10h 34m
Length of Day
9h 30m
New Moon, 1% of the Moon is Illuminated
Nov 14
New Moon
Nov 20
First Quarter
Nov 28
Full
Dec 6
Last Quarter
Dec 13
New

Hourly Weather History & Observations

Time (CST) Temp. Windchill Dew Point Humidity Pressure Visibility Wind Dir Wind Speed Gust Speed Precip Events Conditions
12:54 AM 28.0 °F 24.2 °F 19.0 °F 69% 30.41 in 10.0 mi SSE 3.5 mph - N/A   Clear
1:54 AM 27.0 °F 23.0 °F 19.9 °F 75% 30.42 in 10.0 mi SE 3.5 mph - N/A   Mostly Cloudy
2:54 AM 28.0 °F 22.8 °F 19.9 °F 72% 30.42 in 10.0 mi SE 4.6 mph - N/A   Overcast
3:54 AM 28.0 °F 24.2 °F 19.9 °F 72% 30.41 in 10.0 mi SE 3.5 mph - N/A   Overcast
4:54 AM 28.0 °F 22.8 °F 21.0 °F 75% 30.42 in 10.0 mi SE 4.6 mph - N/A   Overcast
5:54 AM 28.0 °F - 21.0 °F 75% 30.41 in 10.0 mi Calm Calm - N/A   Overcast
6:54 AM 28.0 °F 22.8 °F 21.0 °F 75% 30.42 in 10.0 mi SE 4.6 mph - N/A   Overcast
7:54 AM 28.9 °F 22.8 °F 21.9 °F 75% 30.40 in 10.0 mi SE 5.8 mph - N/A   Overcast
8:54 AM 30.9 °F 23.5 °F 23.0 °F 72% 30.40 in 10.0 mi SSE 8.1 mph - N/A   Overcast
9:54 AM 36.0 °F 30.3 °F 24.1 °F 62% 30.39 in 10.0 mi SSE 6.9 mph - N/A   Scattered Clouds
10:54 AM 37.0 °F 29.3 °F 25.0 °F 62% 30.37 in 10.0 mi South 11.5 mph - N/A   Overcast
11:54 AM 37.9 °F 31.5 °F 25.0 °F 60% 30.35 in 10.0 mi South 9.2 mph - N/A   Overcast
12:54 PM 41.0 °F 35.2 °F 26.1 °F 55% 30.32 in 10.0 mi SSE 9.2 mph - N/A   Scattered Clouds
1:54 PM 42.1 °F 37.1 °F 27.0 °F 55% 30.31 in 10.0 mi South 8.1 mph - N/A   Mostly Cloudy
2:54 PM 42.1 °F 39.2 °F 28.0 °F 58% 30.30 in 10.0 mi South 4.6 mph - N/A   Overcast
3:54 PM 42.1 °F 37.1 °F 27.0 °F 55% 30.30 in 10.0 mi South 8.1 mph - N/A   Overcast
4:54 PM 39.9 °F 35.8 °F 27.0 °F 60% 30.29 in 10.0 mi SSE 5.8 mph - N/A   Overcast
5:54 PM 39.0 °F 34.0 °F 27.0 °F 62% 30.30 in 10.0 mi SSE 6.9 mph - N/A   Overcast
6:54 PM 37.9 °F 32.1 °F 27.0 °F 65% 30.30 in 10.0 mi SSE 8.1 mph - N/A   Overcast
7:54 PM 37.0 °F 31.6 °F 28.0 °F 70% 30.30 in 10.0 mi SSE 6.9 mph - N/A   Clear
8:54 PM 37.0 °F 31.6 °F 28.0 °F 70% 30.29 in 10.0 mi SSE 6.9 mph - N/A   Clear
9:54 PM 36.0 °F 31.1 °F 28.0 °F 73% 30.28 in 10.0 mi SSE 5.8 mph - N/A   Clear
10:54 PM 36.0 °F 32.1 °F 28.0 °F 73% 30.28 in 10.0 mi SSE 4.6 mph - N/A   Mostly Cloudy
11:54 PM 36.0 °F 31.1 °F 28.0 °F 73% 30.27 in 10.0 mi SSE 5.8 mph - N/A   Overcast